Flag for Germany Weather past 2 weeks in Rotenburg (Wümme), Lower Saxony, Germany

Now
43 °F

Overcast.


Feels Like: 37 °F
Forecast: 39 / 48 °F
Wind: 13 mph from West

Location: Bremen

Current Time: Mar 30, 2015 at 2:25:50 AM

Latest Report: Mar 30, 2015 at 2:00 AM


Visibility: 16 mi

Pressure: 29.21 "Hg

Humidity: 80%

Dew point: 37 °F

Location of Rotenburg (Wümme)Location

Historic Weather in Rotenburg (Wümme) — Graph

°F

Rotenburg (Wümme) temperature yesterday

Maximum temperature yesterday: 51 °F (at 4:00 AM)
Minimum temperature yesterday: 47 °F (at 6:00 PM)
Average temperature yesterday: 49 °F

Past Weeks' High & Low Weather Summary

 TemperatureHumidityPressure
High60 °F (Mar 18, 4:00 PM)100% (Mar 19, 6:00 AM)30.46 "Hg (Mar 19, 6:00 AM)
Low28 °F (Mar 23, 7:00 AM)31% (Mar 19, 4:00 PM)29.00 "Hg (Mar 29, 9:00 PM)
Average44 °F78%30.06 "Hg
* Reported Midnight between Mar 14 and Mar 15 — Mar 30 1:00 AM, Rotenburg (Wümme), Weather by CustomWeather, © 2015

Note: Actual official high and low records may vary slightly from our data, if they occured in-between our weather recording intervals... More about our weather records

Advertising

Rotenburg (Wümme) weather history for previous 24 hours

 ConditionsComfort  
Time TempWeatherWind HumidityBarometerVisibility
1:00 AM
Mon, Mar 30
43 °FSprinkles. Overcast.12 mph89%29.18 "Hg16 mi
12:00 AM42 °FSprinkles. Overcast.13 mph89%29.15 "Hg16 mi
10:00 PM
Sun, Mar 29
48 °FSprinkles. Overcast.14 mph87%29.00 "Hg4 mi
9:00 PM51 °FLight rain. Overcast.14 mph85%29.00 "Hg16 mi
8:00 PM50 °FLight rain. Overcast.6 mph94%29.03 "Hg5 mi
7:00 PM49 °FRain. Overcast.7 mph94%29.09 "Hg5 mi
6:00 PM47 °FRain. Overcast.6 mph95%29.18 "Hg8 mi
4:00 PM48 °FRain. Overcast.7 mph90%29.32 "Hg9 mi
3:00 PM48 °FRain. Overcast.6 mph90%29.35 "Hg6 mi
2:00 PM48 °FDrizzle. Overcast.7 mph88%29.41 "Hg9 mi
1:00 PM49 °FDrizzle. Overcast.7 mph88%29.44 "Hg5 mi
12:00 PM49 °FOvercast.8 mph85%29.47 "Hg9 mi
11:00 AM49 °FOvercast.10 mph88%29.47 "Hg12 mi
10:00 AM48 °FDrizzle. Low clouds.8 mph95%29.50 "Hg2 mi
9:00 AM49 °FLight rain. Overcast.8 mph87%29.50 "Hg9 mi
8:00 AM49 °FLight rain. Overcast.8 mph90%29.53 "Hg9 mi
7:00 AM49 °FRain. Overcast.10 mph92%29.53 "Hg4 mi
5:00 AM51 °FOvercast.9 mph88%29.54 "Hg14 mi
4:00 AM51 °FOvercast.8 mph89%29.57 "Hg12 mi
3:00 AM51 °FLow clouds.7 mph92%29.59 "Hg7 mi
Weather by CustomWeather, © 2015

See weather overviewHow to use our weather pages